Simultaneous Nadir Overpasses (SNOs) Predictions

Prediction of SNOs between NOAA-20 and AQUA Satellite Orbit:

Table of predicted SNOs for the next 14.0 days since TLE Epoch: 9/7/2018
Index Date (NOAA-20) Time (NOAA-20) Lat,Lon (NOAA-20) SZA (NOAA-20 ) Date (AQUA) Time (AQUA) Lat,Lon (AQUA) SZA (AQUA ) Distance(km) Time Diff (sec)
1 09/09/2018 22:12:59 -75.27, -96.65 87.00 09/09/2018 22:14:05 -75.28, -96.55 87.09 2.91 66
2 09/09/2018 23:03:16 76.51, 74.80 91.53 09/09/2018 23:03:06 76.51, 74.82 91.53 0.74 10
3 09/12/2018 14:29:44 -75.77, 20.69 86.65 09/12/2018 14:30:21 -75.78, 20.77 86.70 2.47 37
4 09/12/2018 15:20:04 76.85,-168.11 92.05 09/12/2018 15:19:25 76.85,-168.12 92.09 0.29 39
5 09/15/2018 06:46:31 -76.17, 137.80 86.18 09/15/2018 06:46:39 -76.18, 137.87 86.20 1.73 8
6 09/15/2018 07:36:51 77.23, -50.77 92.53 09/15/2018 07:35:43 77.22, -50.83 92.60 1.57 68
7 09/17/2018 22:12:50 75.73, 84.80 95.30 09/17/2018 22:13:47 75.73, 84.76 95.26 1.18 57
8 09/17/2018 23:03:17 -76.61,-104.84 85.75 09/17/2018 23:02:56 -76.61,-104.81 85.73 0.71 21
9 09/20/2018 14:29:34 76.23,-157.77 95.68 09/20/2018 14:30:02 76.22,-157.87 95.68 2.66 28




NCC Satellite Simultaneous Nadir Overpasses (SNOs) Prediction Service
